{"data":{"norad_id":57189,"intl_designator":"2023-091Z","name":"VIZARD-METEO (RS38S)","alt_names":[],"object_type":"PAYLOAD","status":"ACTIVE","operator":null,"country":"CIS","launch_date":"2023-06-27","launch_site_code":"VOSTO","launch_vehicle":null,"mission":null,"orbit_class":"UNKNOWN","rcs_meters":null,"size_class":null,"mass_kg":null,"dimensions":null,"purposes":["comms"],"wikipedia_slug":null,"has_3d_model":false,"image_url":null,"decayed_at":null,"tle_current":{"epoch":"2026-05-25T03:29:23.872416Z","epoch_age_seconds":59587,"freshness":"FRESH","line1":"1 57189U 23091Z   26145.14541519  .00016293  00000+0  47861-3 0  9992","line2":"2 57189  97.5102 214.1819 0008600 146.1328 214.0466 15.35175326161156","mean_motion":15.35175326,"eccentricity":0.00086,"inclination_deg":97.5102,"raan_deg":214.1819,"arg_perigee_deg":146.1328,"mean_anomaly_deg":214.0466,"bstar":0.00047861,"rev_number":16115,"period_min":93.8003611452,"perigee_km":454.51863622808,"apogee_km":466.28091948599,"semimajor_km":6838.536777857,"source":"CELESTRAK","updated_at":"2026-05-25T13:38:23.292462Z"}}}